Content
SEND FEEDBACK

Daily
Averages
Monthly
Summary
United States of America

ST. LOUIS, MISSOURI


Home > North America > United States > Missouri
Elevation: 535 feet     Latitude: 38 45N     Longitude: 090 22W

WEATHER
 
SELECT A DAY
Number of Records: 196,500;   Date Range: 1/1/95 - 8/30/14
 
SHARE

PRINT THIS DATA

[ ← Previous Day ]
WEATHER ALMANAC - FEBRUARY 16, 2014
[ Next Day → ]
[ °C ]   °F
Weather ElementAverageHighLow
Temperature29.7 °F32 °F (1:54 pm)26.1 °F (11:54 pm)
Dewpoint22.4 °F24.8 °F (4:02 am)19 °F (10:54 pm)
Humidity74.4 %86 % (6:19 pm)69 % (1:54 pm)
Barometer30.18 in30.26 in (10:54 am)30.01 in (1:54 am)
Wind Speed7.2 mph12.7 mph (3:54 am)
Wind Gust20.7 mph (3:54 am)
Weather ElementAverage
Visibility9.2 mi
Wind DirectionSSE (169.3 °)

Weather ElementTotal
Precipitation---
Heating Degree Days36 (Base 65)
Averaged from 27 records on February 16, 2014
WEATHER CONDITIONS BREAKOUT
WIND DIRECTION BREAKOUT
WEATHER BY HOUR - FEBRUARY 16, 2014
[ °C ]   °F
Local TimeTemperatureDewpointHumidityBarometerVisibilityWind DirectionWind SpeedGust SpeedPrecipitationEventsConditions
1:54 AM28.0 °F21.0 °F75 %30.01 in10.0 miWest (270°)4.6 mphClear
2:54 AM30.0 °F21.9 °F72 %30.03 in10.0 miWest (270°)8.1 mphClear
3:54 AM30.9 °F24.1 °F76 %30.04 in10.0 miNW (320°)12.7 mph20.7 mphScattered Clouds
4:02 AM30.2 °F24.8 °F80 %30.03 in10.0 miNW (320°)10.4 mph19.6 mphMostly Cloudy
4:54 AM30.0 °F24.1 °F79 %30.09 in10.0 miNW (320°)10.4 mphOvercast
5:54 AM30.0 °F24.1 °F79 %30.09 in10.0 miNorth (350°)8.1 mphOvercast
6:54 AM30.0 °F24.1 °F79 %30.12 in8.0 miNorth (350°)8.1 mphOvercast
7:54 AM30.0 °F23.0 °F75 %30.18 in9.0 miNorth (360°)8.1 mphOvercast
8:54 AM30.0 °F23.0 °F75 %30.23 in10.0 miNorth (350°)5.8 mphOvercast
9:54 AM30.0 °F23.0 °F75 %30.25 in7.0 miNorth (360°)5.8 mphOvercast
10:54 AM30.9 °F23.0 °F72 %30.26 in10.0 miNNE (30°)4.6 mphOvercast
11:54 AM30.9 °F23.0 °F72 %30.26 in10.0 miNNE (20°)5.8 mphOvercast
12:54 PM30.9 °F23.0 °F72 %30.24 in10.0 miNE (50°)5.8 mphOvercast
1:54 PM32.0 °F23.0 °F69 %30.24 in10.0 miCalmOvercast
2:54 PM32.0 °F23.0 °F69 %30.22 in10.0 miNE (40°)3.5 mphOvercast
3:54 PM30.9 °F23.0 °F72 %30.22 in10.0 miEast (90°)5.8 mphOvercast
4:54 PM30.9 °F23.0 °F72 %30.24 in10.0 miCalmOvercast
5:54 PM30.0 °F24.1 °F79 %30.24 in10.0 miENE (60°)5.8 mphMostly Cloudy
6:19 PM28.4 °F24.8 °F86 %30.19 in8.0 miEast (80°)8.1 mphScattered Clouds
6:52 PM30.2 °F21.2 °F69 %30.21 in9.0 miSE (140°)10.4 mphMostly Cloudy
6:54 PM30.0 °F21.9 °F72 %30.24 in9.0 miSE (130°)8.1 mphMostly Cloudy
7:12 PM28.4 °F21.2 °F74 %30.20 in8.0 miESE (120°)6.9 mphScattered Clouds
7:54 PM28.9 °F21.0 °F72 %30.22 in8.0 miEast (100°)8.1 mphClear
8:54 PM28.0 °F19.9 °F72 %30.24 in9.0 miESE (110°)6.9 mphPartly Cloudy
9:54 PM27.0 °F19.9 °F75 %30.20 in8.0 miEast (100°)12.7 mph19.6 mphMostly Cloudy
10:54 PM27.0 °F19.0 °F72 %30.20 in8.0 miESE (110°)9.2 mphMostly Cloudy
11:54 PM26.1 °F19.0 °F75 %30.17 in8.0 miESE (120°)11.5 mphMostly Cloudy
Hourly data recorded from KSUS, located miles away from St. Louis, Missouri







STORIES FROM OUR PARTNERS